Regional Weather Roundup
Issued by NWS

Home | Current Version | Previous Version | Graphics & Text | Print | Product List | Glossary Off
Versions: 1 2 3 4 5 6 7 8 9 10 11 12 13 14 15 16 17 18 19 20 21 22 23 24 25 26 27 28 29 30 31 32 33 34 35 36 37 38 39 40 41 42 43 44 45 46 47 48 49 50

386
ASUS43 KDMX 210606
RWRIA

WEATHER ROUNDUP FOR IOWA
NATIONAL WEATHER SERVICE DES MOINES IA
100 AM CDT THU SEP 21 2017

NOTE: "FAIR" INDICATES FEW OR NO CLOUDS BELOW 12,000 FEET WITH NO
SIGNIFICANT WEATHER AND/OR OBSTRUCTIONS TO VISIBILITY.

* - THESE STATIONS ARE NOT NWS STATIONS...THUS NOT UNDER NWS
QUALITY CONTROL.  THEY ALSO DO NOT REPORT WEATHER SUCH
AS PRECIPITATION OR FOG.

IAZ001>003-012>014-020>022-031>034-043>046-210700-
   NORTHWEST IOWA

CITY           SKY/WX    TMP DP  RH WIND       PRES   REMARKS
CARROLL *      PTCLDY    59  55  88 CALM      29.93S
CHEROKEE *     CLEAR     51  51 100 CALM      29.95R
DENISON *      CLEAR     55  54  94 NE5       29.94S
LE MARS *      CLEAR     50  50 100 MISG      29.93R
ORANGE CITY *  CLEAR     55  52  88 E6        29.94R HAZE
SHELDON *      CLEAR     48  46  93 E3        29.94R
SIOUX CITY     CLEAR     51  50  96 CALM      29.91S
6HR MIN TEMP:  51; 6HR MAX TEMP:  72;

SPENCER        CLEAR     51  48  89 E3        29.96R
6HR MIN TEMP:  49; 6HR MAX TEMP:  70;

STORM LAKE *   CLEAR     55  48  76 E7        29.95S
$$

IAZ055>058-069>071-079>083-090>094-210700-
   SOUTHWEST IOWA

CITY           SKY/WX    TMP DP  RH WIND       PRES   REMARKS
ATLANTIC *     MOCLDY    61  59  94 N6        29.91S
AUDUBON *      CLEAR     61  55  82 CALM      29.94R
CLARINDA *     CLOUDY    66  64  94 N5        29.91S
COUNCIL BLFS * CLEAR     66  54  63 NE9       29.89F
CRESTON *      PTCLDY    68  59  73 NE9       29.92S
HARLAN  *      CLEAR     61  57  88 N6        29.94F
LAMONI         CLOUDY    71  66  84 NE6       29.90R
6HR MIN TEMP:  71; 6HR MAX TEMP:  82;

RED OAK *      CLOUDY    64  59  82 NE6       29.90S
SHENANDOAH *   CLOUDY    66  61  82 NE6       29.89S
$$

IAZ047>049-059>061-072>074-084-210700-
   CENTRAL IOWA

CITY           SKY/WX    TMP DP  RH WIND       PRES   REMARKS
AMES           CLEAR     66  59  78 N5        29.93R
6HR MIN TEMP:  66; 6HR MAX TEMP:  76;

ANKENY *       PTCLDY    68  59  73 N6        29.92R
BOONE *        MOCLDY    64  57  77 NE8       29.93R
CHARITON *     CLOUDY    70  64  83 NE9       29.90S
DES MOINES     MOCLDY    73  59  61 NE10      29.90R
6HR MIN TEMP:  72; 6HR MAX TEMP:  81;

GRINNELL*      CLOUDY    70  63  80 NE7       29.92S
KNOXVILLE *    MOCLDY    72  63  73 NE7       29.89F
MARSHALLTOWN   MOCLDY    68  62  81 E6        29.93R
6HR MIN TEMP:  67; 6HR MAX TEMP:  77;

NEWTON *       MOCLDY    70  63  78 NE6       29.92R
PELLA *        PTCLDY    72  63  73 NE3       29.91S
PERRY *          N/A     64  60  86 NE3       29.93R
$$

IAZ004>006-015-016-023>025-035-036-210700-
   NORTH CENTRAL IOWA

CITY           SKY/WX    TMP DP  RH WIND       PRES   REMARKS
ALGONA *       CLEAR     54  52  94 NE5       29.96S
CLARION *      CLEAR     57  55  94 E6        29.95S
ESTHERVILLE    CLEAR     50  49  96 NE3       29.97R
6HR MIN TEMP:  50; 6HR MAX TEMP:  67;

FORT DODGE *   CLEAR     56  53  90 CALM      29.95S
MASON CITY     CLEAR     53  50  89 N7        29.98R
6HR MIN TEMP:  50; 6HR MAX TEMP:  69;

FOREST CITY *    N/A     55  52  88 NE5       29.97R
IOWA FALLS *   MOCLDY    66  57  74 NE3       29.96R
$$

IAZ007>011-017>019-026>030-037>042-050>054-066-210700-
   NORTHEAST IOWA

CITY           SKY/WX    TMP DP  RH WIND       PRES   REMARKS
CEDAR RAPIDS   CLOUDY    73  72  96 SE6       29.90F
6HR MIN TEMP:  73; 6HR MAX TEMP:  83;

CHARLES CITY * CLEAR     59  57  94 N5        29.97R
CLINTON *      CLOUDY   N/A N/A N/A SW13      29.89F
DECORAH *      CLOUDY    63  61  94 SE3       29.97R
DUBUQUE        CLOUDY    71  67  87 NE3       29.95R
6HR MIN TEMP:  70; 6HR MAX TEMP:  75; 6HR PCP:  0.14;

MONTICELLO *   CLOUDY    72  68  88 VRB6      29.92F
OELWEIN *      MOCLDY    66  64  94 NE7       29.96R
WATERLOO       MOCLDY    65  62  90 N5        29.94R
6HR MIN TEMP:  65; 6HR MAX TEMP:  74;

$$

IAZ064-065-067-068-078-210700-
   EAST CENTRAL IOWA

CITY           SKY/WX    TMP DP  RH WIND       PRES   REMARKS
DAVENPORT      TSTM      69  67  93 SW7       29.96F
6HR MIN TEMP:  66; 6HR MAX TEMP:  76; 6HR PCP:  3.40;

IOWA CITY      CLOUDY    72  68  87 SE10      29.93S
6HR MIN TEMP:  72; 6HR MAX TEMP:  85; 6HR PCP:  0.16;

MUSCATINE *    HVY RAIN  70  66  88 NE12      29.92F
QUAD CITIES    TSTM      70  67  90 W8        29.92F FOG
6HR MIN TEMP:  70; 6HR MAX TEMP:  88; 6HR PCP:  1.22;

$$

IAZ062-063-075>077-085>089-095>099-210700-
   SOUTHEAST IOWA

CITY           SKY/WX    TMP DP  RH WIND       PRES   REMARKS
BURLINGTON     CLOUDY    78  72  81 NE10      29.91S HX  80
6HR MIN TEMP:  77; 6HR MAX TEMP:  87;

FAIRFIELD *    CLOUDY    73  72  94 NE16      29.90R FOG
FORT MADISON * PTCLDY    77  70  78 S3        29.91F
KEOKUK *       CLOUDY    81  68  65 S6        29.90S HX  83
OSKALOOSA *    MOCLDY    72  70  93 N6        29.88F
OTTUMWA        CLOUDY    75  74  96 N8        29.87F THUNDER FOG
6HR MIN TEMP:  74; 6HR MAX TEMP:  84; 6HR PCP:  0.09;

WASHINGTON *   CLOUDY    72  70  94 CALM      29.92F
$$

ABBREVIATIONS USED IN REMARKS
   TC - TEMPERATURES IN CELSIUS
  WCI - WIND CHILL INDEX
   HX - HEAT INDEX
  VSB - VISIBILITY
$$





USA.gov is the U.S. government's official web portal to all federal, state and local government web resources and services.